This is the latest recevied weather packets stored in our database for station/object KC4JY. If no packets are shown the sender has not sent any weather packets the latest 10 day(s).
| Time | Temp. | Humidity | Pressure | Rain* | Wind** | Luminosity | Snow |
|---|---|---|---|---|---|---|---|
| 1777960843 | 14.44° C | 77% | 1016.2 hPa | 0 mm | - | - | - |
| 1777959932 | 14.44° C | 76% | 1016.3 hPa | 0 mm | - | - | - |
| 1777959009 | 14.44° C | 75% | 1016.5 hPa | 0 mm | - | - | - |
| 1777958116 | 15° C | 74% | 1016.4 hPa | 0 mm | - | - | - |
| 1777957259 | 15° C | 74% | 1016.5 hPa | 0 mm | - | - | - |
| 1777956347 | 15.56° C | 72% | 1016.5 hPa | 0 mm | - | - | - |
| 1777955428 | 15.56° C | 71% | 1016.5 hPa | 0 mm | - | - | - |
| 1777954526 | 15.56° C | 71% | 1016.5 hPa | 0 mm | - | - | - |
| 1777953605 | 16.11° C | 70% | 1016.4 hPa | 0 mm | - | - | - |
| 1777952705 | 16.11° C | 70% | 1016.4 hPa | 0 mm | - | - | - |
| 1777951848 | 16.11° C | 69% | 1016.5 hPa | 0 mm | - | - | - |
| 1777950953 | 16.11° C | 67% | 1016.5 hPa | 0 mm | - | - | - |
| 1777950029 | 16.67° C | 66% | 1016.7 hPa | 0 mm | - | - | - |
| 1777949131 | 17.22° C | 65% | 1016.6 hPa | 0 mm | - | - | - |
| 1777948220 | 17.22° C | 63% | 1016.5 hPa | 0 mm | - | - | - |
| 1777947315 | 17.78° C | 61% | 1016.4 hPa | 0 mm | - | - | - |
| 1777946454 | 17.78° C | 60% | 1016.4 hPa | 0 mm | - | - | - |
| 1777945552 | 18.33° C | 58% | 1016.4 hPa | 0 mm | - | - | - |
| 1777944646 | 18.89° C | 56% | 1016.2 hPa | 0 mm | - | - | - |
| 1777943734 | 18.89° C | 55% | 1016 hPa | 0 mm | - | - | - |
| 1777942816 | 19.44° C | 55% | 1015.7 hPa | 0 mm | - | - | - |
| 1777941921 | 19.44° C | 55% | 1015.6 hPa | 0 mm | - | - | - |
| 1777941075 | 20° C | 56% | 1015.4 hPa | 0 mm | - | - | - |
| 1777940158 | 20.56° C | 54% | 1015.1 hPa | 0 mm | - | - | - |
| 1777939267 | 20.56° C | 54% | 1014.8 hPa | 0 mm | - | - | - |
* Rain latest hour (hover to see other rain measurements)
** Current wind speed in m/s (hover to see current wind gust speed)